TimeCST,TemperatureF,Dew PointF,Humidity,Sea Level PressureIn,VisibilityMPH,Wind Direction,Wind SpeedMPH,Gust SpeedMPH,PrecipitationIn,Events,Conditions,WindDirDegrees,DateUTC
12:15 AM,32.0,21.2,64,30.31,10.0,NNW,11.5,-,N/A,,Clear,340,2013-01-24 06:15:00
12:35 AM,32.0,19.4,60,30.32,10.0,NNW,10.4,17.3,N/A,,Clear,340,2013-01-24 06:35:00
12:55 AM,32.0,19.4,60,30.33,10.0,North,10.4,-,N/A,,Clear,350,2013-01-24 06:55:00
1:15 AM,32.0,19.4,60,30.35,10.0,NNW,8.1,17.3,N/A,,Clear,340,2013-01-24 07:15:00
1:35 AM,32.0,19.4,60,30.35,10.0,North,10.4,-,N/A,,Clear,350,2013-01-24 07:35:00
1:55 AM,32.0,19.4,60,30.37,10.0,North,8.1,17.3,N/A,,Clear,350,2013-01-24 07:55:00
2:15 AM,30.2,19.4,64,30.38,10.0,NNW,6.9,-,N/A,,Clear,340,2013-01-24 08:15:00
2:35 AM,30.2,19.4,64,30.39,10.0,North,9.2,-,N/A,,Scattered Clouds,350,2013-01-24 08:35:00
2:55 AM,30.2,19.4,64,30.40,10.0,North,16.1,21.9,N/A,,Mostly Cloudy,360,2013-01-24 08:55:00
3:15 AM,28.4,15.8,59,30.41,10.0,North,11.5,21.9,N/A,,Scattered Clouds,360,2013-01-24 09:15:00
3:35 AM,28.4,15.8,59,30.42,10.0,North,11.5,-,N/A,,Clear,350,2013-01-24 09:35:00
3:55 AM,26.6,15.8,64,30.42,10.0,North,11.5,16.1,N/A,,Clear,360,2013-01-24 09:55:00
4:15 AM,26.6,15.8,64,30.42,10.0,North,9.2,-,N/A,,Clear,360,2013-01-24 10:15:00
4:35 AM,26.6,14.0,59,30.44,10.0,North,9.2,16.1,N/A,,Clear,360,2013-01-24 10:35:00
4:55 AM,24.8,14.0,64,30.46,10.0,North,6.9,-,N/A,,Clear,360,2013-01-24 10:55:00
5:15 AM,24.8,14.0,64,30.47,10.0,NNE,15.0,-,N/A,,Scattered Clouds,20,2013-01-24 11:15:00
5:35 AM,23.0,14.0,68,30.48,10.0,NNE,15.0,-,N/A,,Scattered Clouds,20,2013-01-24 11:35:00
6:53 AM,21.2,10.4,63,30.51,20.0,NE,15.0,-,N/A,,Mostly Cloudy,50,2013-01-24 12:53:00
7:54 AM,21.2,10.4,63,30.53,20.0,NNE,13.8,-,N/A,,Mostly Cloudy,30,2013-01-24 13:54:00
8:53 AM,21.2,6.8,54,30.55,20.0,NE,13.8,-,N/A,,Mostly Cloudy,50,2013-01-24 14:53:00
9:58 AM,24.8,6.8,46,30.58,20.0,NE,9.2,-,N/A,,Mostly Cloudy,40,2013-01-24 15:58:00
11:54 AM,28.4,8.6,43,30.55,20.0,ENE,11.5,-,N/A,,Mostly Cloudy,70,2013-01-24 17:54:00
12:52 PM,30.2,8.6,40,30.51,20.0,East,5.8,-,N/A,,Mostly Cloudy,80,2013-01-24 18:52:00
1:59 PM,30.2,8.6,40,30.48,20.0,East,9.2,-,N/A,,Mostly Cloudy,90,2013-01-24 19:59:00
2:55 PM,32.0,8.6,38,30.46,20.0,ESE,11.5,-,N/A,,Mostly Cloudy,110,2013-01-24 20:55:00
3:55 PM,30.2,8.6,40,30.44,20.0,East,11.5,-,N/A,,Mostly Cloudy,90,2013-01-24 21:55:00
4:55 PM,28.4,8.6,43,30.44,20.0,ENE,11.5,-,N/A,,Mostly Cloudy,70,2013-01-24 22:55:00
5:55 PM,28.4,10.4,47,30.43,20.0,East,9.2,-,N/A,,Mostly Cloudy,90,2013-01-24 23:55:00
6:55 PM,30.2,10.4,44,30.42,10.0,ENE,9.2,-,N/A,,Clear,70,2013-01-25 00:55:00
7:15 PM,28.4,10.4,47,30.41,10.0,East,8.1,-,N/A,,Clear,80,2013-01-25 01:15:00
7:35 PM,28.4,10.4,47,30.40,10.0,East,5.8,-,N/A,,Clear,80,2013-01-25 01:35:00
7:55 PM,30.2,10.4,44,30.37,10.0,East,9.2,-,N/A,,Mostly Cloudy,80,2013-01-25 01:55:00
8:15 PM,30.2,10.4,44,30.37,10.0,East,6.9,-,N/A,,Overcast,100,2013-01-25 02:15:00
8:35 PM,30.2,8.6,40,30.38,10.0,East,5.8,-,N/A,,Overcast,90,2013-01-25 02:35:00
8:55 PM,30.2,8.6,40,30.36,10.0,East,9.2,-,N/A,,Overcast,100,2013-01-25 02:55:00
9:15 PM,30.2,8.6,40,30.37,10.0,East,6.9,-,N/A,,Overcast,90,2013-01-25 03:15:00
9:35 PM,30.2,6.8,37,30.35,10.0,East,6.9,-,N/A,,Overcast,90,2013-01-25 03:35:00
9:55 PM,30.2,5.0,34,30.34,10.0,ESE,9.2,-,N/A,,Overcast,110,2013-01-25 03:55:00
10:15 PM,30.2,5.0,34,30.35,10.0,ESE,6.9,-,N/A,,Overcast,120,2013-01-25 04:15:00
10:35 PM,30.2,3.2,32,30.32,10.0,ESE,12.7,-,N/A,,Overcast,110,2013-01-25 04:35:00
10:55 PM,30.2,3.2,32,30.32,10.0,ESE,9.2,-,N/A,,Overcast,110,2013-01-25 04:55:00
11:15 PM,30.2,3.2,32,30.31,10.0,ESE,6.9,-,N/A,,Overcast,120,2013-01-25 05:15:00
11:35 PM,30.2,3.2,32,30.29,10.0,ESE,6.9,-,N/A,,Overcast,120,2013-01-25 05:35:00
11:55 PM,30.2,3.2,32,30.28,10.0,ESE,5.8,-,N/A,,Overcast,110,2013-01-25 05:55:00